This is the latest recevied weather packets stored in our database for station/object KD9DOE. If no packets are shown the sender has not sent any weather packets the latest 10 day(s).
| Time | Temp. | Humidity | Pressure | Rain* | Wind** | Luminosity | Snow |
|---|---|---|---|---|---|---|---|
| 1777984917 | 8.33° C | 45% | 1009.3 hPa | 0 mm | - | 93 W/m² | - |
| 1777984613 | 7.78° C | 46% | 1009 hPa | 0 mm | - | 78 W/m² | - |
| 1777984310 | 7.78° C | 47% | 1009.1 hPa | 0 mm | - | 97 W/m² | - |
| 1777984007 | 7.78° C | 45% | 1009.2 hPa | 0 mm | - | 66 W/m² | - |
| 1777983704 | 7.78° C | 46% | 1009.2 hPa | 0 mm | - | 49 W/m² | - |
| 1777983401 | 7.78° C | 45% | 1008.9 hPa | 0 mm | - | 49 W/m² | - |
| 1777983097 | 7.78° C | 45% | 1008.9 hPa | 0 mm | - | 48 W/m² | - |
| 1777982793 | 7.78° C | 45% | 1008.8 hPa | 0 mm | - | 48 W/m² | - |
| 1777982489 | 7.22° C | 47% | 1008.8 hPa | 0 mm | - | 56 W/m² | - |
| 1777982184 | 7.22° C | 47% | 1008.8 hPa | 0 mm | - | 45 W/m² | - |
| 1777981881 | 7.22° C | 50% | 1008.4 hPa | 0 mm | - | 32 W/m² | - |
| 1777981578 | 6.67° C | 50% | 1008.4 hPa | 0 mm | - | 31 W/m² | - |
| 1777981275 | 6.67° C | 49% | 1007.9 hPa | 0 mm | - | 28 W/m² | - |
| 1777980971 | 6.67° C | 51% | 1007.8 hPa | 0 mm | - | 27 W/m² | - |
| 1777980668 | 6.11° C | 52% | 1007.5 hPa | 0 mm | - | 29 W/m² | - |
| 1777980364 | 5.56° C | 54% | 1007.3 hPa | 0 mm | - | 28 W/m² | - |
| 1777980062 | 5.56° C | 58% | 1007.3 hPa | 0 mm | - | 25 W/m² | - |
| 1777979756 | 5.56° C | 57% | 1006.9 hPa | 0 mm | - | 19 W/m² | - |
| 1777979452 | 5.56° C | 57% | 1007.1 hPa | 0 mm | - | 14 W/m² | - |
| 1777979149 | 5.56° C | 56% | 1007.3 hPa | 0 mm | - | 11 W/m² | - |
| 1777978846 | 5.56° C | 57% | 1007.2 hPa | 0 mm | - | 8 W/m² | - |
| 1777978542 | 5.56° C | 55% | 1007.2 hPa | 0 mm | - | 5 W/m² | - |
| 1777978238 | 6.11° C | 54% | 1007.2 hPa | 0 mm | - | 3 W/m² | - |
| 1777977935 | 6.11° C | 55% | 1007.2 hPa | 0 mm | - | 2 W/m² | - |
| 1777977633 | 6.11° C | 54% | 1007.2 hPa | 0 mm | - | 1 W/m² | - |
* Rain latest hour (hover to see other rain measurements)
** Current wind speed in m/s (hover to see current wind gust speed)